Elat, Israel

2:51 PM IST on February 27, 2017 (GMT +0200)
Eilat

Weather History for LLET - May, 2014

Change the Weather History Date:

Thursday, May 8, 2014

  Actual Average Record
Temperature  
Mean Temperature 74 °F -  
Max Temperature 81 °F 95 °F 104 °F (2003)
Min Temperature 66 °F 73 °F 62 °F (2000)
Cooling Degree Days 8    
Growing Degree Days 24 (Base 50)    
Moisture  
Dew Point 55 °F    
Average Humidity 51    
Maximum Humidity 67    
Minimum Humidity 43    
Precipitation  
Precipitation 0.16 in -3.50 in - ()
Sea Level Pressure  
Sea Level Pressure 29.78 in    
Wind  
Wind Speed 7 mph ()    
Max Wind Speed 16 mph    
Max Gust Speed -    
Visibility 6.0 miles    
Events Rain , Thunderstorm    
Averages and records for this station are not official NWS values.
T = Trace of Precipitation, MM = Missing Value Source: Averaged Metar Reports

Daily Weather History Graph

Daily Weather History Graph

Search for Another Location

Airport or City:

Trip Planner

Search our weather history database for the weather conditions in past years. The results will help you decide how hot, cold, wet, or windy it might be!

Date:

Astronomy

May. 08, 2014 Rise Set
Actual Time 5:52 AM IDT 7:21 PM IDT
Civil Twilight 5:27 AM IDT 7:46 PM IDT
Nautical Twilight 4:56 AM IDT 8:17 PM IDT
Astronomical Twilight 4:24 AM IDT 8:49 PM IDT
Moon 1:30 PM IDT (5/8) 1:43 AM IDT (5/8)
Length of Visible Light 14h 19m
Length of Day
13h 28m
First Quarter, 62% of the Moon is Illuminated
May 8
First Quarter
May 14
Full
May 21
Last Quarter
May 28
New
Jun 5
First Quarter

Hourly Weather History & Observations

Time (IDT) Temp. Heat Index Dew Point Humidity Pressure Visibility Wind Dir Wind Speed Gust Speed Precip Events Conditions
12:00 AM 76 °F - 60 °F 49% 29.78 in - West 3.5 mph - -  
3:00 AM 71 °F - 61 °F 64% 29.76 in - ENE 5.8 mph - -  
5:30 AM 71.6 °F - 51.8 °F 50% 29.74 in 6.2 mi NE 10.4 mph - N/A   Scattered Clouds
5:50 AM 69.8 °F - 50.0 °F 49% 29.74 in 6.2 mi ENE 10.4 mph - N/A   Partly Cloudy
6:00 AM 70 °F - 62 °F 67% 29.73 in - NNE 6.9 mph - -  
6:50 AM 71.6 °F - 51.8 °F 50% 29.77 in 6.2 mi NNE 8.1 mph - N/A   Overcast
7:50 AM 69.8 °F - 50.0 °F 49% 29.77 in 6.2 mi NNE 11.5 mph - N/A Rain , Thunderstorm Thunderstorms and Rain
8:50 AM 66.2 °F - 46.4 °F 49% 29.77 in 2.5 mi ENE 12.7 mph - N/A Rain , Thunderstorm Thunderstorms and Rain
9:00 AM 67 °F - - % 29.78 in - NE 3.5 mph - -  
9:21 AM 69.8 °F - 50.0 °F 49% 29.77 in 6.2 mi NNE 9.2 mph - N/A   Partly Cloudy
9:50 AM 71.6 °F - 53.6 °F 53% 29.77 in 6.2 mi North 10.4 mph - N/A   Partly Cloudy
10:50 AM 75.2 °F - 55.4 °F 50% 29.77 in 6.2 mi ENE 10.4 mph - N/A   Partly Cloudy
11:50 AM 77.0 °F - 57.2 °F 50% 29.77 in 6.2 mi ENE 8.1 mph - N/A   Scattered Clouds
12:00 PM 79 °F - 61 °F 45% 29.75 in - ENE 5.8 mph - -  
12:50 PM 80.6 °F 81.1 °F 59.0 °F 48% 29.74 in 6.2 mi NE 8.1 mph - N/A   Mostly Cloudy
1:50 PM 78.8 °F - 57.2 °F 47% 29.74 in 6.2 mi North 12.7 mph - N/A   Scattered Clouds
2:50 PM 78.8 °F - 57.2 °F 47% 29.71 in 6.2 mi ENE 5.8 mph - N/A   Scattered Clouds
3:00 PM 80 °F - 61 °F 43% 29.70 in - NE 3.5 mph - -  
3:50 PM 78.8 °F - 59.0 °F 51% 29.74 in 6.2 mi NW 16.1 mph - N/A   Partly Cloudy
4:50 PM 77.0 °F - 55.4 °F 47% 29.74 in 6.2 mi ENE 5.8 mph - N/A Rain , Thunderstorm Thunderstorms and Rain
5:35 PM 71.6 °F - 51.8 °F 50% 29.80 in 6.2 mi NE 16.1 mph - N/A Rain Light Rain
5:50 PM 71.6 °F - 51.8 °F 50% 29.80 in 6.2 mi North 15.0 mph - N/A Rain Rain
6:00 PM 70 °F - 58 °F 57% 29.81 in - West 3.5 mph - -  
6:50 PM 69.8 °F - 51.8 °F 53% 29.83 in 6.2 mi North 5.8 mph - N/A   Mostly Cloudy
7:50 PM 69.8 °F - 50.0 °F 49% 29.83 in 6.2 mi NE 6.9 mph - N/A   Mostly Cloudy
8:50 PM 71.6 °F - 51.8 °F 50% 29.86 in 6.2 mi North 5.8 mph - N/A   Mostly Cloudy
9:00 PM 70 °F - 59 °F 59% 29.85 in - NW 3.5 mph - -  
9:50 PM 71.6 °F - 51.8 °F 50% 29.86 in 6.2 mi NNW 5.8 mph - N/A   Scattered Clouds
10:50 PM 69.8 °F - 50.0 °F 49% 29.86 in 6.2 mi Variable 2.3 mph - N/A   Scattered Clouds